• En España
  • Lista de países
  • Para 7 días
  • Temperatura del agua
  • Mapa Satelital
  • El tiempo en el mapa
  • Informadores
  • user-avatar
    Iniciar sesión

    Tiempo cada hora Nikiterevec

    Hoy, 28 Mayo, Lunes

    Tiempo Temperatura Precipitaciones Viento Presión Humedad
    00:00 +10°C° 0 mm 2 mps 753 mmHg 53%
    01:00 +9°C° 0 mm 2 mps 753 mmHg 52%
    02:00 +8°C° 0 mm 2 mps 754 mmHg 52%
    03:00 +8°C° 0 mm 2 mps 754 mmHg 52%
    04:00 +8°C° 0 mm 2 mps 755 mmHg 53%
    05:00 +8°C° 0 mm 2 mps 755 mmHg 53%
    06:00 +10°C° 0 mm 2 mps 756 mmHg 47%
    07:00 +13°C° 0 mm 2 mps 756 mmHg 42%
    08:00 +14°C° 0 mm 3 mps 756 mmHg 36%
    09:00 +16°C° 0 mm 2 mps 756 mmHg 33%
    10:00 +17°C° 0 mm 2 mps 756 mmHg 30%
    11:00 +19°C° 0 mm 2 mps 756 mmHg 27%
    12:00 +19°C° 0 mm 2 mps 756 mmHg 26%
    13:00 +20°C° 0 mm 2 mps 756 mmHg 26%
    14:00 +21°C° 0 mm 2 mps 756 mmHg 25%
    15:00 +21°C° 0 mm 1 mps 756 mmHg 27%
    16:00 +21°C° 0 mm 1 mps 755 mmHg 29%
    17:00 +21°C° 0 mm 1 mps 755 mmHg 31%
    18:00 +19°C° 0 mm 1 mps 755 mmHg 38%
    19:00 +16°C° 0 mm 1 mps 755 mmHg 46%
    20:00 +13°C° 0 mm 1 mps 755 mmHg 53%
    21:00 +13°C° 0 mm 1 mps 755 mmHg 54%
    22:00 +12°C° 0 mm 1 mps 755 mmHg 55%
    23:00 +11°C° 0 mm 1 mps 755 mmHg 56%

    Mañana, 29 Mayo, Martes

    Tiempo Temperatura Precipitaciones Viento Presión Humedad
    00:00 +10°C° 0 mm 1 mps 756 mmHg 58%
    01:00 +9°C° 0 mm 2 mps 756 mmHg 60%
    02:00 +9°C° 0 mm 2 mps 756 mmHg 62%
    03:00 +9°C° 0 mm 2 mps 755 mmHg 63%
    04:00 +10°C° 0 mm 2 mps 755 mmHg 63%
    05:00 +10°C° 0 mm 2 mps 755 mmHg 63%
    06:00 +13°C° 0 mm 2 mps 755 mmHg 57%
    07:00 +16°C° 0 mm 2 mps 754 mmHg 51%
    08:00 +18°C° 0 mm 2 mps 754 mmHg 44%
    09:00 +19°C° 0 mm 3 mps 754 mmHg 40%
    10:00 +21°C° 0 mm 3 mps 753 mmHg 36%
    11:00 +22°C° 0 mm 3 mps 753 mmHg 32%
    12:00 +24°C° 0 mm 3 mps 752 mmHg 33%
    13:00 +25°C° 0 mm 3 mps 751 mmHg 33%
    14:00 +25°C° 0 mm 3 mps 750 mmHg 34%
    15:00 +25°C° 0 mm 4 mps 749 mmHg 38%
    16:00 +25°C° 0 mm 4 mps 749 mmHg 42%
    17:00 +25°C° 0 mm 4 mps 748 mmHg 46%
    18:00 +22°C° 0 mm 3 mps 747 mmHg 56%
    19:00 +20°C° 0 mm 3 mps 747 mmHg 65%
    20:00 +18°C° 0 mm 2 mps 746 mmHg 74%
    21:00 +17°C° 0 mm 2 mps 746 mmHg 77%
    22:00 +16°C° 0 mm 2 mps 746 mmHg 79%
    23:00 +15°C° 0 mm 2 mps 746 mmHg 81%

    Pasado mañana, 30 Mayo, Miércoles

    Tiempo Temperatura Precipitaciones Viento Presión Humedad
    00:00 +14°C° 0 mm 3 mps 745 mmHg 83%
    01:00 +13°C° 0 mm 3 mps 745 mmHg 84%
    02:00 +13°C° 0 mm 3 mps 745 mmHg 86%
    03:00 +13°C° 0 mm 3 mps 744 mmHg 81%
    04:00 +14°C° 0 mm 3 mps 744 mmHg 76%
    05:00 +14°C° 0 mm 4 mps 743 mmHg 72%
    06:00 +17°C° 0 mm 4 mps 743 mmHg 63%
    07:00 +19°C° 0 mm 5 mps 742 mmHg 55%
    08:00 +20°C° 0 mm 5 mps 742 mmHg 47%
    09:00 +22°C° 0 mm 6 mps 742 mmHg 44%
    10:00 +23°C° 0 mm 6 mps 741 mmHg 41%
    11:00 +24°C° 0 mm 6 mps 741 mmHg 39%
    12:00 +26°C° 0 mm 6 mps 740 mmHg 38%
    13:00 +26°C° 0 mm 7 mps 740 mmHg 37%
    14:00 +26°C° 0 mm 7 mps 740 mmHg 36%
    15:00 +24°C° 0 mm 6 mps 740 mmHg 38%
    16:00 +23°C° 0 mm 5 mps 739 mmHg 40%
    17:00 +22°C° 0 mm 4 mps 739 mmHg 42%
    18:00 +20°C° 0 mm 4 mps 740 mmHg 45%
    19:00 +17°C° 0 mm 4 mps 740 mmHg 48%
    20:00 +14°C° 0 mm 3 mps 740 mmHg 51%
    21:00 +13°C° 0 mm 3 mps 741 mmHg 54%
    22:00 +11°C° 0 mm 3 mps 741 mmHg 57%
    23:00 +10°C° 0 mm 2 mps 741 mmHg 60%

    31 Mayo, Jueves

    Tiempo Temperatura Precipitaciones Viento Presión Humedad
    00:00 +9°C° 0 mm 2 mps 742 mmHg 65%
    01:00 +8°C° 0 mm 2 mps 742 mmHg 70%
    02:00 +8°C° 0 mm 2 mps 743 mmHg 75%
    03:00 +8°C° 0 mm 3 mps 743 mmHg 72%
    04:00 +8°C° 0 mm 3 mps 744 mmHg 70%
    05:00 +7°C° 0 mm 4 mps 744 mmHg 67%
    06:00 +8°C° 0 mm 4 mps 745 mmHg 60%
    07:00 +10°C° 0 mm 4 mps 745 mmHg 52%
    08:00 +10°C° 0 mm 4 mps 745 mmHg 44%
    09:00 +11°C° 0 mm 4 mps 746 mmHg 40%
    10:00 +12°C° 0 mm 4 mps 746 mmHg 35%
    11:00 +13°C° 0 mm 4 mps 746 mmHg 31%
    12:00 +13°C° 0 mm 4 mps 746 mmHg 30%
    13:00 +14°C° 0 mm 4 mps 746 mmHg 28%
    14:00 +14°C° 0 mm 4 mps 746 mmHg 27%
    15:00 +14°C° 0 mm 4 mps 746 mmHg 29%
    16:00 +14°C° 0 mm 4 mps 747 mmHg 30%
    17:00 +13°C° 0 mm 4 mps 747 mmHg 32%
    18:00 +12°C° 0 mm 3 mps 747 mmHg 38%
    19:00 +10°C° 0 mm 3 mps 747 mmHg 45%
    20:00 +8°C° 0 mm 2 mps 748 mmHg 51%
    21:00 +7°C° 0 mm 3 mps 748 mmHg 53%
    22:00 +5°C° 0 mm 3 mps 749 mmHg 56%
    23:00 +4°C° 0 mm 3 mps 749 mmHg 58%

    1 Junio, Viernes

    Tiempo Temperatura Precipitaciones Viento Presión Humedad
    00:00 +3°C° 0 mm 3 mps 750 mmHg 61%
    01:00 +3°C° 0 mm 2 mps 750 mmHg 64%
    02:00 +3°C° 0 mm 2 mps 750 mmHg 66%
    03:00 +3°C° 0 mm 2 mps 751 mmHg 65%
    04:00 +3°C° 0 mm 2 mps 751 mmHg 63%
    05:00 +3°C° 0 mm 3 mps 751 mmHg 61%
    06:00 +4°C° 0 mm 3 mps 751 mmHg 55%
    07:00 +7°C° 0 mm 3 mps 752 mmHg 49%
    08:00 +8°C° 0 mm 3 mps 752 mmHg 43%
    09:00 +10°C° 0 mm 3 mps 752 mmHg 41%
    10:00 +11°C° 0 mm 3 mps 752 mmHg 38%
    11:00 +12°C° 0 mm 3 mps 752 mmHg 35%
    12:00 +13°C° 0 mm 3 mps 751 mmHg 33%
    13:00 +13°C° 0 mm 3 mps 751 mmHg 32%
    14:00 +14°C° 0 mm 3 mps 751 mmHg 31%
    15:00 +15°C° 0 mm 2 mps 751 mmHg 31%
    16:00 +15°C° 0 mm 2 mps 751 mmHg 32%
    17:00 +15°C° 0 mm 2 mps 751 mmHg 33%
    18:00 +13°C° 0 mm 2 mps 751 mmHg 41%
    19:00 +11°C° 0 mm 1 mps 751 mmHg 49%
    20:00 +9°C° 0 mm 1 mps 751 mmHg 57%
    21:00 +8°C° 0 mm 1 mps 751 mmHg 58%
    22:00 +7°C° 0 mm 1 mps 752 mmHg 60%
    23:00 +5°C° 0 mm 0 mps 752 mmHg 62%

    2 Junio, Sábado

    Tiempo Temperatura Precipitaciones Viento Presión Humedad
    00:00 +5°C° 0 mm 0 mps 752 mmHg 64%
    01:00 +4°C° 0 mm 0 mps 752 mmHg 65%
    02:00 +4°C° 0 mm 0 mps 752 mmHg 67%
    03:00 +5°C° 0 mm 0 mps 752 mmHg 64%
    04:00 +7°C° 0 mm 1 mps 752 mmHg 62%
    05:00 +8°C° 0 mm 1 mps 753 mmHg 60%
    06:00 +10°C° 0 mm 1 mps 753 mmHg 53%
    07:00 +13°C° 0 mm 1 mps 753 mmHg 47%
    08:00 +15°C° 0 mm 1 mps 753 mmHg 40%
    09:00 +16°C° 0 mm 1 mps 752 mmHg 37%
    10:00 +19°C° 0 mm 1 mps 752 mmHg 33%
    11:00 +19°C° 0 mm 2 mps 752 mmHg 30%
    12:00 +19°C° 0 mm 2 mps 751 mmHg 30%
    13:00 +20°C° 0 mm 2 mps 750 mmHg 29%
    14:00 +20°C° 0 mm 2 mps 750 mmHg 29%
    15:00 +20°C° 0 mm 2 mps 750 mmHg 31%
    16:00 +20°C° 0 mm 2 mps 749 mmHg 33%
    17:00 +20°C° 0 mm 3 mps 749 mmHg 35%
    18:00 +18°C° 0 mm 2 mps 749 mmHg 44%
    19:00 +16°C° 0 mm 2 mps 748 mmHg 53%
    20:00 +14°C° 0 mm 2 mps 748 mmHg 62%
    21:00 +13°C° 0 mm 2 mps 748 mmHg 64%
    22:00 +12°C° 0 mm 2 mps 748 mmHg 65%
    23:00 +10°C° 0 mm 2 mps 748 mmHg 67%
    Mostrar más